{"data":{"norad_id":69256,"intl_designator":"2026-117U","name":"STARLINK-37396","alt_names":[],"object_type":"PAYLOAD","status":"ACTIVE","operator":null,"country":"US","launch_date":"2026-05-29","launch_site_code":"AFETR","launch_vehicle":null,"mission":null,"orbit_class":"UNKNOWN","rcs_meters":null,"size_class":null,"mass_kg":null,"dimensions":null,"purposes":["comms"],"wikipedia_slug":null,"has_3d_model":false,"image_url":null,"decayed_at":null,"tle_current":{"epoch":"2026-09-20T04:31:15.428928Z","epoch_age_seconds":53891,"freshness":"FRESH","line1":"1 69256U 26117U   26263.18837302  .00015953  00000+0  48236-3 0  9994","line2":"2 69256  53.1568 154.8639 0000910  83.8433 276.2673 15.34395633 17624","mean_motion":15.34395633,"eccentricity":9.1e-5,"inclination_deg":53.1568,"raan_deg":154.8639,"arg_perigee_deg":83.8433,"mean_anomaly_deg":276.2673,"bstar":0.00048236,"rev_number":1762,"period_min":93.848025178784,"perigee_km":462.09370223918,"apogee_km":463.3387375252,"semimajor_km":6840.8532198822,"source":"CELESTRAK","updated_at":"2026-09-20T09:00:44.151200Z"}}}